SCP
1 1 1 1 1 1 1 1 1 1 1 1 1 1 1 1 1 1 0 0 0 0 1 1 1 1 1 1 1 1 1 1 1 1 1 1 1 1 1 1 1 0 0
1 1 1 1 1 1 1 1 1 1 1 1 1 1 1 1 0 0 0 0 0 0 1 1 1 1 1 1 1 1 1 1 1 1 1 1 1 1 1 1 1 0 0
1 1 1 1 1 1 1 1 1 0 0 0 0 0 1 1 0 0 0 0 0 0 0 1 1 1 1 1 1 1 1 1 1 1 1 1 1 1 1 1 0 0 0
1 1 1 1 1 1 1 1 0 0 0 0 0 0 0 0 0 0 0 0 0 1 0 0 0 1 1 1 1 1 1 1 1 1 1 1 1 1 1 1 0 0 0
1 1 1 1 1 1 1 1 0 0 0 0 0 0 0 0 0 0 0 0 0 0 0 0 0 0 0 0 0 1 1 1 1 1 1 1 1 1 1 1 1 0 0
1 1 1 1 1 1 1 1 0 0 0 0 0 0 0 0 0 0 0 0 0 0 0 0 0 0 0 0 0 0 0 0 1 1 1 1 1 1 1 1 1 1 0
1 1 1 1 1 1 1 1 0 0 0 0 0 0 0 0 0 0 0 0 0 0 0 0 0 0 0 0 0 0 0 0 1 1 1 1 1 1 1 1 1 1 1
2 1 1 1 1 1 0 0 0 0 0 0 0 0 0 0 0 0 0 0 0 0 0 0 0 0 0 0 0 0 0 1 1 1 1 1 1 1 1 1 1 1 1
2 1 1 1 1 1 1 0 0 0 0 0 0 0 0 0 0 0 0 0 0 0 0 0 0 0 0 0 0 0 0 1 1 1 1 1 1 1 1 1 1 1 1
1 1 1 1 1 1 1 0 0 0 0 0 0 0 0 0 0 0 0 0 0 0 0 0 0 0 0 0 0 0 0 0 1 1 0 0 0 1 1 1 1 1 1
1 1 1 1 1 1 1 1 0 0 0 0 0 0 0 0 0 0 0 0 0 0 0 0 0 0 0 0 0 0 0 0 0 0 0 0 0 0 0 0 1 1 1
1 1 1 1 1 1 1 1 1 0 0 0 0 0 0 0 0 0 0 0 0 0 0 0 0 0 0 0 0 0 0 0 0 0 0 0 0 0 0 0 0 0 0
1 1 1 1 1 1 1 1 1 1 0 0 0 0 0 0 0 0 0 0 0 0 0 0 0 0 0 0 0 0 0 0 0 0 0 0 0 0 0 0 0 0 0
1 1 1 1 1 1 1 1 1 1 0 0 0 0 0 0 0 0 0 0 0 0 0 0 0 0 0 0 0 0 0 0 0 0 0 0 0 0 0 0 0 0 0
1 1 1 1 1 1 1 1 1 1 1 0 0 0 0 0 0 0 0 0 0 0 0 0 0 0 0 0 0 0 0 0 0 0 0 0 0 0 0 0 0 0 0
1 1 1 1 1 1 1 1 1 1 1 1 0 0 0 0 0 0 0 0 0 0 0 0 0 0 0 0 0 0 0 0 0 0 0 0 0 0 0 0 0 0 0
1 1 1 0 0 0 1 1 0 0 1 1 0 0 0 0 0 0 0 0 0 0 0 0 0 0 0 0 0 0 0 0 0 0 0 0 0 0 0 0 0 0 0
0 0 0 0 0 0 0 0 0 0 0 0 0 0 0 0 0 0 0 0 0 0 0 0 0 0 0 0 0 0 0 0 0 0 0 0 0 0 0 0 0 0 0
0 0 0 0 0 0 0 0 0 0 0 0 0 0 0 0 0 0 0 0 0 0 0 0 0 0 0 0 0 0 0 0 0 0 0 0 0 0 0 0 0 0 0
0 0 0 0 0 0 0 0 0 0 0 0 0 0 0 0 0 0 0 0 0 0 0 0 0 0 0 0 0 0 0 0 0 0 0 0 0 0 0 0 0 0 0
0 0 0 0 0 0 0 0 0 0 0 0 0 0 0 0 0 0 0 0 0 0 0 0 0 0 0 0 0 0 0 0 0 0 0 0 0 0 0 0 0 0 0
0 0 0 0 0 0 0 0 0 0 0 0 0 0 0 0 0 0 0 0 0 0 0 0 0 0 0 0 0 0 0 0 0 0 0 0 0 0 0 0 0 0 0
0 0 0 0 0 0 0 0 0 0 0 0 0 0 0 0 0 0 0 0 0 0 0 0 0 0 0 0 0 0 0 0 0 0 0 0 0 0 0 0 0 0 0
0 0 0 0 0 0 0 0 0 0 0 0 0 0 0 0 0 0 0 0 0 0 0 0 0 0 0 0 0 0 0 0 0 0 0 0 0 0 0 0 0 0 0
0 0 0 0 0 0 0 0 0 0 0 0 0 0 0 0 0 0 0 0 0 0 0 0 0 0 0 0 0 0 0 0 0 0 0 0 0 0 0 0 0 0 0
0 0 0 0 0 0 0 0 0 0 0 0 0 0 0 0 0 0 0 0 0 0 0 0 0 0 0 0 0 0 0 0 0 0 0 0 0 0 0 0 0 0 0
Wind_Speed
3 2 1 1 1 1 2 1 1 2 2 2 1 1 1 1 1 1 1 2 2 1 1 1 1 1 0 0 0 0 0 0 0 0 0 0 1 1 1 1 2 2 2
3 3 2 2 2 1 1 1 1 1 1 1 1 1 1 1 1 2 1 1 1 2 2 1 1 1 1 1 1 1 1 0 0 1 1 1 1 1 1 2 2 3 3
4 3 2 2 2 2 2 2 2 1 1 1 1 2 1 1 2 2 2 1 1 0 2 2 3 2 2 2 2 2 1 1 1 2 2 2 2 2 2 3 3 3 3
4 3 3 2 2 2 2 2 2 2 1 1 1 1 1 1 2 2 2 2 1 1 1 2 3 3 3 3 3 3 3 2 2 2 3 3 3 4 3 4 4 4 4
5 4 3 2 3 2 2 2 2 2 2 1 1 1 1 2 2 2 2 2 2 2 1 0 1 3 3 4 4 4 4 4 3 3 4 4 4 4 5 5 5 5 5
4 4 3 3 4 3 3 3 3 2 2 1 1 1 2 2 2 2 2 2 2 2 2 2 2 1 3 4 5 5 5 5 4 4 4 4 5 5 5 6 6 7 7
5 4 3 4 4 4 4 4 3 3 2 1 1 1 2 2 3 2 2 2 2 3 3 3 3 3 2 4 5 6 6 6 5 5 5 5 6 6 6 7 7 8 8
4 4 4 4 4 4 5 4 4 2 2 2 2 1 2 3 3 2 2 2 3 2 3 3 3 3 3 3 2 5 6 6 6 6 6 6 7 7 7 7 8 8 9
4 4 5 5 5 5 4 5 5 5 3 3 2 2 2 2 1 2 2 2 2 2 2 2 3 3 4 3 3 3 4 5 5 5 6 6 6 7 7 8 8 9 10
4 4 4 5 5 4 4 4 5 4 4 4 3 3 2 1 2 1 2 2 2 3 3 2 3 3 3 3 3 3 3 4 5 6 6 7 7 8 8 9 9 9 10
4 4 4 4 4 4 5 5 5 5 4 4 3 3 3 3 3 3 3 2 2 3 3 3 3 3 3 3 3 3 3 4 5 6 7 7 8 8 9 10 10 10 11
4 4 4 4 4 4 5 5 5 6 5 5 4 4 3 3 4 4 4 3 3 2 3 3 3 3 3 3 3 4 4 5 6 6 7 7 8 9 10 10 11 12 12
3 4 4 4 4 4 4 5 5 5 6 6 5 4 4 4 3 3 4 3 3 2 3 3 3 3 3 3 3 4 5 6 6 7 7 8 8 9 9 11 12 12 13
4 4 4 4 4 4 4 4 4 5 5 6 6 5 4 4 3 4 3 3 4 4 4 4 2 3 3 3 3 4 4 6 7 7 8 8 9 9 10 11 12 12 13
3 4 4 4 4 4 4 4 4 4 4 5 5 5 4 4 3 3 3 4 4 5 5 3 2 2 2 3 3 4 5 6 7 8 9 9 9 9 10 11 12 13 13
3 3 3 4 4 4 4 4 4 4 5 5 4 5 5 4 3 3 4 4 5 5 5 2 3 2 3 3 4 5 5 6 7 8 9 9 9 10 10 11 12 12 13
2 3 3 3 3 3 3 4 4 4 5 5 5 6 6 5 4 4 4 4 4 5 7 5 3 3 4 4 3 4 5 5 5 7 9 10 10 10 10 11 11 12 12
1 2 2 3 3 3 3 4 4 4 5 5 5 6 6 5 6 5 4 5 5 5 6 7 4 3 4 4 4 5 4 4 5 6 9 10 10 10 11 11 11 12 11
1 1 2 2 3 3 3 3 4 4 4 5 5 5 6 6 6 5 5 5 5 4 5 5 5 3 3 3 4 4 5 5 5 5 8 9 10 10 11 11 11 11 11
1 1 1 2 2 2 2 2 3 3 4 4 4 4 5 5 6 6 5 6 5 5 5 5 5 4 3 3 3 4 4 4 4 4 6 7 8 10 11 11 11 11 11
1 1 1 1 1 2 2 2 3 3 3 3 3 4 4 4 5 5 4 5 5 5 5 5 5 4 4 3 4 3 5 5 5 4 4 4 5 5 6 8 9 10 10
1 1 1 1 1 1 1 2 3 3 3 3 3 3 4 4 5 6 6 6 6 6 6 6 6 6 6 5 4 4 4 4 5 2 4 5 4 6 5 5 7 9 10
1 1 1 1 2 2 2 2 3 3 3 3 4 3 3 3 4 5 5 7 7 7 8 7 8 8 7 6 5 6 5 6 6 3 4 6 5 6 5 5 8 10 11
1 1 2 2 2 3 3 3 3 3 3 4 4 4 4 4 4 4 4 5 5 6 6 6 7 7 6 5 5 6 6 6 5 3 3 6 5 6 5 5 7 9 10
2 2 2 2 3 3 3 4 3 3 3 4 4 4 4 5 5 5 5 5 6 5 6 7 7 7 7 6 4 3 3 4 5 4 2 4 4 5 6 5 5 7 8
2 2 2 2 3 3 4 4 4 3 3 3 3 3 4 6 6 6 6 5 6 6 4 5 6 7 6 5 5 4 4 4 4 4 2 2 3 3 5 3 3 4 5
Wind_Direction
171 167 165 166 173 175 176 173 163 161 176 186 179 182 183 182 196 205 139 53 5 339 280 265 263 240 221 190 194 206 231 218 228 316 280 258 307 318 313 344 325 319 328
177 175 175 177 183 185 180 178 169 173 181 176 174 190 199 197 211 223 224 159 51 333 308 287 266 253 255 265 262 258 261 256 304 311 280 266 277 315 321 289 288 301 306
183 180 179 181 183 181 173 156 150 154 160 179 183 191 194 206 218 230 240 242 205 62 318 304 284 266 256 262 274 274 267 288 292 297 288 269 267 273 285 275 275 286 296
185 184 185 184 177 172 170 167 167 171 177 194 211 211 209 205 224 233 239 237 242 240 231 316 309 293 276 265 263 269 271 274 283 291 291 278 268 260 271 278 274 276 285
188 190 189 182 179 174 174 177 186 193 191 191 230 242 239 228 229 225 230 233 238 245 249 286 308 310 296 276 267 266 267 269 277 282 289 289 282 272 273 277 271 271 274
186 192 185 180 181 181 177 180 185 187 197 192 215 242 242 243 241 234 237 236 244 250 252 260 255 260 279 279 270 265 265 268 271 273 283 287 291 288 281 279 271 266 268
185 189 184 181 187 189 184 181 180 181 189 184 208 240 237 231 238 241 241 237 233 242 249 256 262 266 253 256 265 262 264 267 272 276 282 283 283 285 289 291 277 264 264
188 192 194 186 187 189 184 181 176 187 185 196 214 227 239 214 213 229 232 235 236 230 242 250 256 263 270 263 266 260 264 267 273 280 287 285 282 283 285 287 290 273 264
191 194 203 193 189 191 191 189 188 196 194 196 224 234 233 235 217 196 223 232 228 231 242 248 257 264 270 272 272 266 273 276 281 286 290 291 292 291 289 289 292 288 277
198 199 202 198 191 193 193 193 195 202 202 197 203 240 270 301 244 232 208 221 243 252 246 248 255 259 265 267 274 300 302 293 292 292 289 287 287 289 290 291 290 292 289
203 203 199 196 196 199 199 196 194 198 204 210 202 200 213 232 244 249 249 236 239 244 249 253 259 258 259 263 268 282 279 283 288 290 291 288 288 288 289 289 289 289 291
200 205 199 201 206 206 203 201 200 200 203 210 213 210 208 211 214 224 245 260 262 248 247 249 247 251 255 260 269 289 279 280 279 283 285 286 286 287 289 290 289 289 290
203 207 200 207 213 214 212 206 202 204 206 207 211 216 226 235 233 229 240 253 261 259 243 236 237 243 246 254 266 274 271 272 276 281 283 283 282 283 286 288 288 289 290
212 204 201 207 213 209 209 209 208 209 210 212 215 216 219 229 228 227 230 236 253 250 240 241 227 230 242 255 280 265 272 269 273 278 279 278 279 282 284 285 286 287 287
210 204 199 203 207 204 205 204 212 212 213 216 217 217 221 225 226 231 234 235 242 253 254 237 232 222 251 270 284 276 278 281 276 277 277 278 278 279 280 282 283 284 285
205 197 193 200 204 204 205 205 212 215 212 217 217 216 220 223 223 223 228 236 243 251 258 254 239 257 267 275 281 278 277 282 270 274 275 276 276 277 279 280 281 282 283
214 200 194 198 200 203 205 207 213 213 214 218 219 218 222 221 222 221 223 230 236 240 251 261 257 263 263 274 283 281 280 275 273 270 274 273 274 276 278 280 280 282 283
230 218 203 201 206 207 208 210 216 218 218 220 220 220 223 220 223 224 222 228 234 236 244 258 260 260 267 278 282 282 284 283 280 279 274 273 275 277 279 281 282 283 284
239 224 213 213 218 219 221 222 221 219 221 224 223 223 227 222 225 225 225 230 235 238 241 252 261 264 271 280 283 281 282 280 281 281 275 270 272 277 280 281 281 280 281
236 229 226 230 235 232 237 234 228 224 225 229 231 229 229 226 230 231 230 233 234 237 240 248 255 263 267 278 275 280 284 279 279 283 271 272 274 274 276 278 279 278 278
256 244 240 242 251 243 244 235 230 227 228 233 235 237 239 239 241 238 237 236 232 236 238 243 251 257 256 263 263 272 276 284 278 268 280 281 282 278 276 275 273 274 278
285 284 264 249 254 269 276 246 240 235 231 230 235 242 246 242 245 244 245 244 239 236 239 242 248 251 256 256 262 263 272 284 279 263 280 281 277 274 274 273 282 283 279
284 274 280 272 266 279 284 265 248 243 240 239 238 240 243 251 241 242 245 247 247 250 247 248 252 254 261 256 257 261 260 267 272 290 286 279 276 274 278 279 285 283 282
278 268 274 276 279 291 289 275 261 248 252 251 248 244 246 254 252 246 241 243 248 251 252 252 259 266 274 273 257 262 267 275 281 273 264 275 281 280 287 281 284 282 280
289 285 287 278 278 289 292 283 271 259 257 259 258 254 255 261 266 250 243 250 257 262 261 259 268 278 282 278 267 262 262 265 275 271 251 268 286 295 289 280 283 284 284
291 299 294 285 285 290 298 290 274 264 265 266 263 259 259 264 268 250 246 250 257 265 271 272 270 276 276 271 254 244 244 254 272 271 224 253 279 298 289 278 290 298 290